Regional Weather Roundup
Issued by NWS Cleveland, OH

Home | Current Version | Previous Version | Graphics & Text | Print | Product List | Glossary On
Versions: 1 2 3 4 5 6 7 8 9 10 11 12 13 14 15 16 17 18 19 20 21 22 23 24 25 26 27 28 29 30 31 32 33 34 35 36 37 38 39 40 41 42 43 44 45 46 47 48 49 50
000
ASUS41 KCLE 231902
RWRCLE
OHIO REGIONAL WEATHER ROUNDUP
NATIONAL WEATHER SERVICE CLEVELAND, OH
200 PM EST MON JAN 23 2017

NOTE: "FAIR" INDICATES FEW OR NO CLOUDS BELOW 12,000 FEET WITH NO
SIGNIFICANT WEATHER AND/OR OBSTRUCTIONS TO VISIBILITY.

OHZ001>008-015>018-024>027-034-035-043-044-232000-
   NORTHWEST OHIO

CITY           SKY/WX    TMP DP  RH WIND       PRES   REMARKS
DEFIANCE       CLOUDY    42  40  92 N6        29.63F
FINDLAY        CLOUDY    43  39  86 N10       29.58F FOG
TOLEDO EXPRESS CLOUDY    42  42 100 NE13      29.62F
TOLEDO EXEC    CLOUDY    40  39  97 NE9G18    29.63F
LIMA           LGT RAIN  40  40 100 N13       29.58F
$$

OHZ009>014-019>023-028>033-038-089-232000-
   NORTHEAST OHIO

CITY           SKY/WX    TMP DP  RH WIND       PRES   REMARKS
CLE-HOPKINS    CLOUDY    42  38  85 N9        29.58F FOG
CLE-LAKEFRONT  FOG       38  37  97 NE16      29.56F VSB 1/4
CUY CO. ARPT   PTSUNNY   46  43  87 NE12      29.57F
LORAIN-ELYRIA  CLOUDY    40  37  89 NE13      29.57F FOG
ASHTABULA      CLOUDY    45  42  89 VRB6      29.58F
AKRON-CANTON   CLOUDY    49  43  80 E10       29.53S
WOOSTER        CLOUDY    49  43  80 E10       29.53F
MANSFIELD      CLOUDY    45  45 100 N9        29.53F FOG
YOUNGSTOWN     LGT RAIN  48  41  76 E8        29.55F
$$

OHZ042-051>053-060>062-070>072-077>081-232000-
  SOUTHWEST OHIO

CITY           SKY/WX    TMP DP  RH WIND       PRES   REMARKS
CINC-COVINGTON LGT RAIN  47  46  97 N16       29.53F FOG
CINC-LUNKEN    CLOUDY    49  47  93 N14       29.53F
HAMILTON       CLOUDY    49  46  90 NW13      29.55F
DAYTON         LGT RAIN  44  43  96 N13       29.56S FOG
WRIGHT-PAT AFB DRIZZLE   46  46 100 N10       29.54S
DAYTON GENERAL LGT RAIN  46  44  93 N13       29.53F FOG
WILMINGTON     CLOUDY    49  48  97 N12       29.50S
$$

OHZ036-037-039>041-045>050-054>059-063>069-073>076-082>088-232000-
  CENTRAL AND SOUTHEAST OHIO

CITY           SKY/WX    TMP DP  RH WIND       PRES   REMARKS
COLUMBUS       CLOUDY    51  45  79 NE9       29.49F
OSU AIRPORT    CLOUDY    49  48  97 N10       29.50F
BOLTON FIELD   CLOUDY    48  48 100 NE9       29.51F
RICKENBACK AFB   N/A     49  47  92 NE12G17   29.49S
NEWARK         CLOUDY    50  44  80 NE13      29.49F
MARION         CLOUDY    46  44  93 N15       29.54F
LANCASTER      CLOUDY    51  45  79 NE14      29.49S
ZANESVILLE     LGT RAIN  48  42  80 NE10      29.50S
NEW PHILLY     NOT AVBL
$$




USA.gov is the U.S. government's official web portal to all federal, state and local government web resources and services.